Home   Weather   Worms   Past weeks

Flag for Germany Past Weather in Worms, Rhineland-Palatinate, Germany — Yesterday and Last 2 Weeks

Now
32 °F

Clear.


Feels Like: 32 °F
Forecast: 20 / 34 °F
Wind: 1 mph from North

Location: Mannheim City

Current Time: Dec 4, 2016 at 5:18:10 pm

Latest Report: Dec 4, 2016 at 4:50 pm


Visibility: 10 mi

Pressure: 30.33 "Hg

Humidity: 75%

Dew Point: 25 °F

Location of WormsLocation

Past Weather in Worms — Graph

°F

Worms Temperature Yesterday

Maximum temperature yesterday: 41 °F (at 2:20 pm)
Minimum temperature yesterday: 27 °F (at 7:50 am)
Average temperature yesterday: 35 °F

High & Low Weather Summary for the Past Weeks

 TemperatureHumidityPressure
High61 °F (Nov 20, 2:50 pm)100% (Nov 22, 6:20 am)30.57 "Hg (Nov 22, 6:20 am)
Low18 °F (Dec 4, 8:20 am)45% (Nov 20, 1:20 pm)29.59 "Hg (Nov 20, 10:20 am)
Average43 °F80%30.13 "Hg
* Reported Nov 19 3:20 pm — Dec 4 3:50 pm, Worms, Weather by CustomWeather, © 2016

Note: Actual official high and low records may vary slightly from our data, if they occured in-between our weather recording intervals... More about our weather records

Advertising

Worms Weather History for the Previous 24 Hours

Scroll right to see more
 ConditionsComfort  
Time TempWeatherWind HumidityBarometerVisibility
3:50 pm
Sun, Dec 4
37 °FSunny.3 mph60%30.33 "Hg10 mi
3:20 pm37 °FSunny.3 mph60%30.33 "Hg10 mi
2:50 pm39 °FSunny.2 mph56%30.33 "Hg10 mi
2:20 pm39 °FSunny.2 mph56%30.33 "Hg10 mi
1:50 pm37 °FSunny.2 mph60%30.33 "Hg10 mi
1:20 pm37 °FSunny.3 mph60%30.33 "Hg10 mi
12:50 pm36 °FSunny.3 mph60%30.36 "Hg10 mi
12:20 pm36 °FSunny.2 mph65%30.36 "Hg10 mi
11:50 am36 °FSunny.2 mph65%30.36 "Hg10 mi
11:20 am34 °FSunny.1 mph65%30.36 "Hg10 mi
10:50 am34 °FSunny.2 mph70%30.36 "Hg10 mi
10:20 am30 °FSunny.1 mph80%30.36 "Hg10 mi
9:50 am28 °FSunny.2 mph93%30.36 "Hg10 mi
9:20 am25 °FSunny.1 mph100%30.36 "Hg10 mi
8:50 am21 °FSunny.1 mph100%30.36 "Hg10 mi
8:20 am18 °FSunny.1 mph100%30.33 "Hg10 mi
7:50 am19 °FClear.No wind100%30.33 "Hg10 mi
7:20 am19 °FClear.No wind100%30.33 "Hg10 mi
7:50 pm
Sat, Dec 3
32 °FClear.5 mph75%30.30 "Hg10 mi
7:20 pm32 °FPassing clouds.5 mph75%30.27 "HgN/A
6:50 pm34 °FClear.6 mph70%30.27 "Hg10 mi
6:20 pm34 °FClear.6 mph75%30.27 "Hg10 mi
5:50 pm34 °FClear.6 mph75%30.27 "Hg10 mi
5:20 pm36 °FClear.5 mph70%30.24 "Hg10 mi
Weather by CustomWeather, © 2016

See weather overviewHow to use our weather pages